TimeEDT,TemperatureF,Dew PointF,Humidity,Sea Level PressureIn,VisibilityMPH,Wind Direction,Wind SpeedMPH,Gust SpeedMPH,PrecipitationIn,Events,Conditions,WindDirDegrees,DateUTC
12:25 AM,60.8,57.2,88,30.06,1.0,Calm,Calm,-,N/A,,Mist,0,2013-10-04 04:25:00
12:32 AM,60.8,57.2,88,30.05,0.5,Calm,Calm,-,N/A,Fog,Fog,0,2013-10-04 04:32:00
12:43 AM,60.8,59.0,94,30.05,2.5,Calm,Calm,-,N/A,,Mostly Cloudy,0,2013-10-04 04:43:00
12:46 AM,60.8,59.0,94,30.05,5.0,Calm,Calm,-,N/A,,Scattered Clouds,0,2013-10-04 04:46:00
12:53 AM,60.1,57.9,93,30.05,7.0,Calm,Calm,-,0.01,,Scattered Clouds,0,2013-10-04 04:53:00
1:14 AM,59.0,57.2,94,30.05,2.5,Calm,Calm,-,N/A,,Scattered Clouds,0,2013-10-04 05:14:00
1:21 AM,60.8,59.0,94,30.05,6.0,Calm,Calm,-,N/A,,Partly Cloudy,0,2013-10-04 05:21:00
1:48 AM,57.2,57.2,100,30.05,1.8,Calm,Calm,-,N/A,,Clear,0,2013-10-04 05:48:00
1:53 AM,57.9,57.0,97,30.05,1.0,Calm,Calm,-,N/A,,Clear,0,2013-10-04 05:53:00
2:00 AM,57.2,57.2,100,30.05,3.0,Calm,Calm,-,N/A,,Clear,0,2013-10-04 06:00:00
2:11 AM,57.2,57.2,100,30.05,2.0,Calm,Calm,-,N/A,,Partly Cloudy,0,2013-10-04 06:11:00
2:17 AM,57.2,57.2,100,30.05,1.0,Calm,Calm,-,N/A,,Mist,0,2013-10-04 06:17:00
2:21 AM,57.2,57.2,100,30.05,0.5,Calm,Calm,-,N/A,Fog,Fog,0,2013-10-04 06:21:00
2:31 AM,59.0,57.2,94,30.04,3.0,Calm,Calm,-,N/A,,Clear,0,2013-10-04 06:31:00
2:53 AM,57.9,57.0,97,30.04,8.0,Calm,Calm,-,N/A,,Clear,0,2013-10-04 06:53:00
3:04 AM,57.2,55.4,94,30.04,2.0,NW,3.5,-,N/A,,Partly Cloudy,320,2013-10-04 07:04:00
3:11 AM,57.2,55.4,94,30.04,1.2,Calm,Calm,-,N/A,,Scattered Clouds,0,2013-10-04 07:11:00
3:16 AM,57.2,57.2,100,30.04,3.0,Calm,Calm,-,N/A,,Scattered Clouds,0,2013-10-04 07:16:00
3:53 AM,57.9,55.9,93,30.04,9.0,Calm,Calm,-,N/A,,Clear,0,2013-10-04 07:53:00
4:53 AM,57.0,55.9,96,30.04,5.0,Calm,Calm,-,N/A,,Scattered Clouds,0,2013-10-04 08:53:00
5:40 AM,57.2,55.4,94,30.04,1.8,Calm,Calm,-,N/A,,Mostly Cloudy,0,2013-10-04 09:40:00
5:50 AM,57.2,55.4,94,30.04,4.0,Calm,Calm,-,N/A,,Partly Cloudy,0,2013-10-04 09:50:00
5:53 AM,57.0,55.0,93,30.04,8.0,Calm,Calm,-,N/A,,Partly Cloudy,0,2013-10-04 09:53:00
6:53 AM,57.0,55.9,96,30.05,8.0,Calm,Calm,-,N/A,,Mostly Cloudy,0,2013-10-04 10:53:00
7:25 AM,55.4,55.4,100,30.05,2.5,Calm,Calm,-,N/A,,Partly Cloudy,0,2013-10-04 11:25:00
7:36 AM,57.2,55.4,94,30.05,3.0,Calm,Calm,-,N/A,,Clear,0,2013-10-04 11:36:00
7:53 AM,57.9,57.0,97,30.06,5.0,Calm,Calm,-,N/A,,Scattered Clouds,0,2013-10-04 11:53:00
8:53 AM,62.1,60.1,93,30.06,7.0,Calm,Calm,-,N/A,,Mostly Cloudy,0,2013-10-04 12:53:00
9:53 AM,70.0,62.1,76,30.06,7.0,Calm,Calm,-,N/A,,Partly Cloudy,0,2013-10-04 13:53:00
10:53 AM,75.0,64.9,71,30.04,9.0,Variable,3.5,-,N/A,,Clear,0,2013-10-04 14:53:00
11:53 AM,81.0,66.9,62,30.03,10.0,Calm,Calm,-,N/A,,Clear,0,2013-10-04 15:53:00
12:53 PM,82.9,64.0,53,30.01,10.0,Calm,Calm,-,N/A,,Clear,0,2013-10-04 16:53:00
1:53 PM,84.9,63.0,48,29.98,10.0,Variable,6.9,-,N/A,,Clear,0,2013-10-04 17:53:00
2:53 PM,84.9,64.0,49,29.97,10.0,Variable,4.6,-,N/A,,Partly Cloudy,0,2013-10-04 18:53:00
3:53 PM,84.0,63.0,49,29.96,10.0,Variable,4.6,-,N/A,,Clear,0,2013-10-04 19:53:00
4:53 PM,82.9,63.0,51,29.96,10.0,Calm,Calm,-,N/A,,Clear,0,2013-10-04 20:53:00
5:53 PM,77.0,66.0,69,29.97,10.0,Calm,Calm,-,N/A,,Clear,0,2013-10-04 21:53:00
6:53 PM,71.1,66.9,87,29.97,10.0,Calm,Calm,-,N/A,,Clear,0,2013-10-04 22:53:00
7:53 PM,70.0,66.0,87,29.98,9.0,Calm,Calm,-,N/A,,Clear,0,2013-10-04 23:53:00
8:53 PM,68.0,64.9,90,30.00,8.0,Calm,Calm,-,N/A,,Clear,0,2013-10-05 00:53:00
9:53 PM,66.0,64.0,93,30.01,7.0,NW,4.6,-,N/A,,Clear,320,2013-10-05 01:53:00
10:53 PM,64.9,64.0,97,30.01,4.0,Calm,Calm,-,N/A,,Clear,0,2013-10-05 02:53:00
10:59 PM,64.4,62.6,94,30.01,1.5,Calm,Calm,-,N/A,,Clear,0,2013-10-05 02:59:00
11:04 PM,64.4,62.6,94,30.00,0.5,Calm,Calm,-,N/A,Fog,Fog,0,2013-10-05 03:04:00
11:12 PM,64.4,62.6,94,30.00,1.0,Calm,Calm,-,N/A,,Clear,0,2013-10-05 03:12:00
11:18 PM,64.4,62.6,94,30.00,3.0,NW,3.5,-,N/A,,Clear,320,2013-10-05 03:18:00
11:53 PM,64.0,63.0,96,30.00,2.5,Calm,Calm,-,N/A,,Clear,0,2013-10-05 03:53:00